sat.trackr.live / text

‹ back to catalog

ROBUSTA-3A (MEDITERRAN*)

NORAD 60243 · 2024-128J

PAYLOAD ACTIVE UNKNOWN

§ Identity

Operator
Country
FR
Launch date
2024-07-09
Launch site
FRGUI
Launch vehicle
Mass (kg)
RCS (m²)

Purposes: tech_demo

External: N2YO · Heavens-Above · Gunter

§ Orbital elements

Epoch: 2026-09-19T11:48:36.446400Z

Period
95.19 min
Inclination
61.9849°
Eccentricity
0.0028027
Mean motion
15.12751491 rev/d
Perigee alt
508.5 km
Apogee alt
547.2 km
Semi-major
6,906.0 km
B*
2.2538e-4
RAAN
234.4591°
Arg perigee
146.6956°
Mean anomaly
213.5911°
Rev number
12,068

§ Raw data

ROBUSTA-3A (MEDITERRAN*)1 60243U 24128J   26262.49208850  .00003780  00000+0  22538-3 0  99962 60243  61.9849 234.4591 0028027 146.6956 213.5911 15.12751491120683

JSON: /api/v1/satellites/60243 · /tle

For live sub-satellite position, see the globe view (requires WebGL).

§ Visibility from observer

Set your observer location to see the next 7 days of passes ≥ 10°. The values pass through the URL so the page stays shareable.

No JS? Fill the form by hand. The geolocation button needs JavaScript.

§ Radio — SatNOGS DB

ModeDescriptionDownlinkUplink
BPSK Mode S - Transmitter 2.202 GHz
GMSK Mode U - GMSK38k4 - AX.25 436.750 MHz
GMSK Mode U - GMSK9k6 - AX.25 436.750 MHz

3 transmitters · refreshed weekly from db.satnogs.org